Location: Br�ttisellen
(47.4227°N, 8.6287°E)
Time: 07:09:42
(UTC+00:00)

Cosmos 1821 Rocket - Pass Details

Date: 09 April 2020
Orbit: 945 x 1005 km, 82.9° (Epoch: 02 June)

Event Time Altitude Azimuth Distance (km) Brightness Sun altitude
Rises 20:16:27 0° 355° (N) 3,730 7.7 -20.5°
Reaches altitude 10° 20:19:07 10° 1° (N) 2,782 6.9 -20.8°
Maximum altitude 20:25:15 46° 74° (ENE) 1,329 4.4 -21.6°
Enters shadow 20:26:48 39° 110° (ESE) 1,467 4.4 -21.8°
